| time (UTC) | temp F | wind direction | speed MPH | gust MPH | rain 1hr in | rain 24hr in | rain mn in | humidity % | barometer mb |
| 20260901095018 | 56 | 113 | 1.0 | 2.0 | 0.00 | 0.00 | 0.00 | 90 | 1007.4 |
| 20260901094018 | 57 | 74 | 0.0 | 0.0 | 0.00 | 0.00 | 0.00 | 89 | 1007.5 |
| 20260901093018 | 57 | 68 | 1.0 | 2.0 | 0.00 | 0.00 | 0.00 | 89 | 1007.7 |
| 20260901092019 | 57 | 68 | 1.0 | 2.0 | 0.00 | 0.00 | 0.00 | 89 | 1007.7 |
| 20260901091018 | 57 | 23 | 1.0 | 3.0 | 0.00 | 0.00 | 0.00 | 89 | 1007.7 |
| 20260901090018 | 57 | 45 | 1.0 | 2.0 | 0.00 | 0.00 | 0.00 | 89 | 1007.6 |
| 20260901085017 | 58 | 109 | 0.0 | 0.0 | 0.00 | 0.00 | 0.00 | 89 | 1007.6 |
| 20260901084017 | 58 | 113 | 2.0 | 3.0 | 0.00 | 0.00 | 0.00 | 88 | 1007.7 |
| 20260901083018 | 58 | 23 | 1.0 | 2.0 | 0.00 | 0.00 | 0.00 | 87 | 1007.7 |
| 20260901082018 | 58 | 0 | 0.0 | 2.0 | 0.00 | 0.00 | 0.00 | 87 | 1007.7 |
| 20260901081018 | 58 | 0 | 2.0 | 2.0 | 0.00 | 0.00 | 0.00 | 86 | 1007.7 |
| 20260901080018 | 59 | 40 | 0.0 | 0.0 | 0.00 | 0.00 | 0.00 | 86 | 1007.6 |
| 20260901075018 | 59 | 45 | 0.0 | 2.0 | 0.00 | 0.00 | 0.00 | 86 | 1007.6 |
| 20260901074019 | 59 | 113 | 1.0 | 2.0 | 0.00 | 0.00 | 0.00 | 85 | 1007.6 |
| 20260901073019 | 60 | 113 | 1.0 | 2.0 | 0.00 | 0.00 | 0.00 | 84 | 1007.6 |
| 20260901072030 | 60 | 113 | 1.0 | 2.0 | 0.00 | 0.00 | 0.00 | 84 | 1007.6 |
| 20260901071019 | 60 | 113 | 1.0 | 2.0 | 0.00 | 0.00 | 0.00 | 84 | 1007.7 |
| 20260901070019 | 61 | 113 | 0.0 | 1.0 | 0.00 | 0.00 | 0.00 | 83 | 1007.7 |
| 20260901065018 | 61 | 113 | 1.0 | 1.0 | 0.00 | 0.00 | 0.00 | 82 | 1007.7 |
| 20260901064019 | 61 | 103 | 0.0 | 0.0 | 0.00 | 0.00 | 0.00 | 80 | 1007.5 |
| 20260901063019 | 62 | 103 | 0.0 | 0.0 | 0.00 | 0.00 | 0.00 | 80 | 1007.5 |
| 20260901062019 | 62 | 103 | 0.0 | 0.0 | 0.00 | 0.00 | 0.00 | 79 | 1007.6 |
| 20260901061019 | 63 | 113 | 0.0 | 1.0 | 0.00 | 0.00 | 0.00 | 78 | 1007.6 |
| 20260901060019 | 63 | 113 | 1.0 | 3.0 | 0.00 | 0.00 | 0.00 | 78 | 1007.7 |
| 20260901055058 | 64 | 90 | 0.0 | 1.0 | 0.00 | 0.00 | 0.00 | 77 | 1007.7 |
| 20260901054018 | 64 | 90 | 1.0 | 2.0 | 0.00 | 0.00 | 0.00 | 76 | 1007.7 |
| 20260901053018 | 65 | 113 | 1.0 | 2.0 | 0.00 | 0.00 | 0.00 | 75 | 1007.7 |
| 20260901052018 | 65 | 68 | 1.0 | 3.0 | 0.00 | 0.00 | 0.00 | 74 | 1007.7 |
| 20260901051018 | 65 | 68 | 2.0 | 3.0 | 0.00 | 0.00 | 0.00 | 74 | 1007.8 |
| 20260901050058 | 66 | 68 | 1.0 | 3.0 | 0.00 | 0.00 | 0.00 | 73 | 1007.8 |
| 20260901045019 | 66 | 113 | 1.0 | 2.0 | 0.00 | 0.00 | 0.00 | 72 | 1007.8 |
| 20260901044019 | 67 | 113 | 2.0 | 3.0 | 0.00 | 0.00 | 0.00 | 71 | 1007.8 |
| 20260901043019 | 67 | 113 | 3.0 | 5.0 | 0.00 | 0.00 | 0.00 | 70 | 1007.8 |
| 20260901042019 | 68 | 113 | 2.0 | 4.0 | 0.00 | 0.00 | 0.00 | 69 | 1007.8 |
| 20260901041018 | 68 | 113 | 3.0 | 5.0 | 0.00 | 0.00 | 0.00 | 69 | 1007.8 |
| 20260901040019 | 69 | 113 | 3.0 | 5.0 | 0.00 | 0.00 | 0.00 | 68 | 1007.7 |
| 20260901035018 | 69 | 113 | 3.0 | 7.0 | 0.00 | 0.00 | 0.00 | 67 | 1007.7 |
| 20260901034552 | 70 | 180 | 2.0 | 4.0 | 0.00 | 0.00 | 0.00 | 67 | |
| 20260831165519 | 67 | 225 | 1.0 | 4.0 | 0.00 | 0.01 | 0.00 | 76 | 1013.4 |
| 20260831144019 | 55 | 23 | 0.0 | 2.0 | 0.00 | 0.01 | 0.00 | 95 | 1014.0 |
| 20260831143018 | 54 | 68 | 1.0 | 2.0 | 0.00 | 0.01 | 0.00 | 94 | 1014.0 |
| 20260831142039 | 54 | 68 | 1.0 | 3.0 | 0.00 | 0.01 | 0.00 | 94 | 1014.0 |
| 20260831141019 | 54 | 68 | 1.0 | 3.0 | 0.00 | 0.01 | 0.00 | 94 | 1014.0 |
| 20260831140022 | 54 | 90 | 1.0 | 3.0 | 0.00 | 0.01 | 0.00 | 94 | 1014.0 |
| 20260831135018 | 54 | 90 | 1.0 | 3.0 | 0.00 | 0.01 | 0.00 | 94 | 1014.0 |
| 20260831134019 | 54 | 68 | 2.0 | 3.0 | 0.00 | 0.01 | 0.00 | 94 | 1014.0 |
| 20260831133018 | 54 | 68 | 1.0 | 2.0 | 0.00 | 0.01 | 0.00 | 94 | 1014.1 |
| 20260831132020 | 54 | 90 | 1.0 | 2.0 | 0.00 | 0.01 | 0.00 | 94 | 1014.2 |
| 20260831131038 | 55 | 68 | 2.0 | 3.0 | 0.00 | 0.01 | 0.00 | 93 | 1014.4 |
| 20260831130018 | 55 | 68 | 1.0 | 3.0 | 0.00 | 0.01 | 0.00 | 94 | 1014.5 |
| 20260831125019 | 55 | 68 | 1.0 | 2.0 | 0.00 | 0.01 | 0.00 | 93 | 1014.5 |
| 20260831124019 | 55 | 68 | 1.0 | 2.0 | 0.00 | 0.01 | 0.00 | 93 | 1014.5 |
| 20260831123039 | 55 | 68 | 0.0 | 2.0 | 0.00 | 0.01 | 0.00 | 93 | 1014.5 |
| 20260831122019 | 55 | 68 | 2.0 | 3.0 | 0.00 | 0.01 | 0.00 | 92 | 1014.6 |
| 20260831121021 | 56 | 68 | 0.0 | 2.0 | 0.00 | 0.01 | 0.00 | 92 | 1014.6 |
| 20260831120020 | 56 | 68 | 0.0 | 2.0 | 0.00 | 0.01 | 0.00 | 92 | 1014.7 |
| 20260831115018 | 56 | 68 | 1.0 | 2.0 | 0.00 | 0.01 | 0.00 | 91 | 1014.7 |
| 20260831114018 | 57 | 63 | 0.0 | 0.0 | 0.00 | 0.01 | 0.00 | 91 | 1014.6 |
| 20260831113018 | 57 | 90 | 1.0 | 2.0 | 0.00 | 0.01 | 0.00 | 91 | 1014.8 |
| 20260831112018 | 57 | 90 | 2.0 | 3.0 | 0.00 | 0.01 | 0.00 | 91 | 1014.8 |
| 20260831111018 | 58 | 113 | 2.0 | 3.0 | 0.00 | 0.01 | 0.00 | 91 | 1015.0 |
| 20260831110018 | 58 | 90 | 1.0 | 2.0 | 0.00 | 0.01 | 0.00 | 91 | 1015.0 |
| 20260831105058 | 58 | 68 | 1.0 | 2.0 | 0.00 | 0.01 | 0.00 | 90 | 1015.0 |
| 20260831104018 | 58 | 90 | 2.0 | 3.0 | 0.00 | 0.01 | 0.00 | 90 | 1015.0 |
| 20260831103043 | 59 | 90 | 1.0 | 3.0 | 0.00 | 0.01 | 0.00 | 90 | 1015.0 |
| 20260831102018 | 59 | 68 | 2.0 | 3.0 | 0.00 | 0.01 | 0.00 | 89 | 1015.0 |
| 20260831101018 | 59 | 68 | 1.0 | 2.0 | 0.00 | 0.01 | 0.00 | 89 | 1015.1 |
| 20260831100019 | 59 | 68 | 1.0 | 2.0 | 0.00 | 0.01 | 0.00 | 89 | 1015.2 |